Mount Vernon, IL

7:25 PM CST on November 22, 2019 (GMT -0600)
Mount Vernon

Weather History for KMVN - September, 2019

Change the Weather History Date:

Monday, September 23, 2019

  Actual Average Record
Temperature  
Mean Temperature 66 °F -  
Max Temperature 78 °F 75 °F 96 °F (2007)
Min Temperature 55 °F 49 °F 35 °F (2012)
Cooling Degree Days 2    
Growing Degree Days 16 (Base 50)    
Moisture  
Dew Point 63 °F    
Average Humidity 87    
Maximum Humidity 100    
Minimum Humidity 45    
Precipitation  
Precipitation 0.09 in - - ()
Sea Level Pressure  
Sea Level Pressure 30.04 in    
Wind  
Wind Speed 5 mph (WSW)    
Max Wind Speed 12 mph    
Max Gust Speed -    
Visibility 7 miles    
Events Rain , Thunderstorm    
Averages and records for this station are not official NWS values.
T = Trace of Precipitation, MM = Missing Value Source: NWS Daily Summary

Daily Weather History Graph

Daily Weather History Graph

Search for Another Location

Airport or City:

Astronomy

Sep. 23, 2019 Rise Set
Actual Time 6:43 AM CDT 6:51 PM CDT
Civil Twilight 6:17 AM CDT 7:17 PM CDT
Nautical Twilight 5:46 AM CDT 7:48 PM CDT
Astronomical Twilight 5:15 AM CDT 8:19 PM CDT
Moon 12:32 AM CDT 3:39 PM CDT
Length of Visible Light 13h 00m
Length of Day
12h 07m
Waning Crescent, 33% of the Moon is Illuminated
Sep 23
Waning Crescent
Sep 28
New
Oct 5
First Quarter
Oct 13
Full
Oct 21
Last Quarter

Hourly Weather History & Observations

Time (CDT) Temp. Dew Point Humidity Pressure Visibility Wind Dir Wind Speed Gust Speed Precip Events Conditions
12:56 AM 71.1 °F 70.0 °F 96% 29.98 in 10.0 mi SSW 5.8 mph - 0.01 in   Overcast
1:56 AM 72.0 °F 71.1 °F 97% 29.97 in 10.0 mi SSW 6.9 mph - 0.00 in Rain Light Rain
2:56 AM 71.1 °F 70.0 °F 96% 29.96 in 10.0 mi WSW 4.6 mph - 0.00 in   Mostly Cloudy
3:21 AM 71.6 °F 71.6 °F 100% 29.96 in 7.0 mi SSW 10.4 mph - 0.07 in Rain Light Rain
3:25 AM 71.6 °F 71.6 °F 100% 29.96 in 8.0 mi SW 10.4 mph - 0.07 in Rain , Thunderstorm Light Rain
3:44 AM 71.6 °F 71.6 °F 100% 29.96 in 10.0 mi WSW 11.5 mph - 0.07 in Rain Light Rain
3:49 AM 71.6 °F 71.6 °F 100% 29.96 in 9.0 mi WSW 10.4 mph - 0.07 in Rain Light Rain
3:56 AM 72.0 °F 71.1 °F 97% 29.97 in 9.0 mi SW 10.4 mph - 0.08 in Rain Light Rain
4:56 AM 72.0 °F 71.1 °F 97% 29.97 in 10.0 mi WSW 4.6 mph - 0.00 in   Overcast
5:56 AM 71.1 °F 71.1 °F 100% 29.98 in 10.0 mi West 3.5 mph - N/A   Mostly Cloudy
6:07 AM 71.6 °F 71.6 °F 100% 29.99 in 10.0 mi WSW 4.6 mph - N/A   Mostly Cloudy
6:39 AM 71.6 °F 71.6 °F 100% 30.00 in 10.0 mi Variable 3.5 mph - N/A   Overcast
6:56 AM 71.1 °F 69.1 °F 93% 30.01 in 10.0 mi North 8.1 mph - N/A   Overcast
7:25 AM 69.8 °F 66.2 °F 88% 30.03 in 10.0 mi Calm Calm - N/A   Mostly Cloudy
7:52 AM 69.8 °F 66.2 °F 88% 30.03 in 10.0 mi Calm Calm - N/A   Mostly Cloudy
7:56 AM 69.1 °F 66.9 °F 93% 30.03 in 10.0 mi Calm Calm - N/A   Mostly Cloudy
8:56 AM 70.0 °F 66.0 °F 87% 30.06 in 10.0 mi Variable 4.6 mph - N/A   Mostly Cloudy
9:04 AM 69.8 °F 64.4 °F 83% 30.05 in 10.0 mi Variable 4.6 mph - N/A   Scattered Clouds
9:13 AM 69.8 °F 64.4 °F 83% 30.06 in 2.5 mi Variable 3.5 mph - N/A   Haze
9:18 AM 69.8 °F 64.4 °F 83% 30.06 in 3.0 mi Variable 5.8 mph - N/A   Haze
9:36 AM 69.8 °F 64.4 °F 83% 30.06 in 10.0 mi Calm Calm - N/A   Mostly Cloudy
9:56 AM 71.1 °F 64.0 °F 78% 30.07 in 10.0 mi Variable 4.6 mph - N/A   Partly Cloudy
10:56 AM 73.0 °F 62.1 °F 68% 30.09 in 10.0 mi Variable 4.6 mph - N/A   Clear
11:56 AM 75.0 °F 62.1 °F 64% 30.09 in 10.0 mi NNE 8.1 mph - N/A   Clear
12:56 PM 75.9 °F 60.1 °F 58% 30.09 in 10.0 mi Variable 3.5 mph - N/A   Clear
1:56 PM 77.0 °F 59.0 °F 54% 30.07 in 10.0 mi Variable 5.8 mph - N/A   Clear
2:56 PM 78.1 °F 57.0 °F 48% 30.06 in 10.0 mi Variable 4.6 mph - N/A   Clear
3:56 PM 78.1 °F 55.0 °F 45% 30.06 in 10.0 mi Variable 4.6 mph - N/A   Clear
4:56 PM 77.0 °F 55.0 °F 47% 30.07 in 10.0 mi Variable 4.6 mph - N/A   Clear
5:56 PM 75.0 °F 55.9 °F 51% 30.07 in 10.0 mi North 3.5 mph - N/A   Clear
6:56 PM 66.0 °F 57.9 °F 75% 30.06 in 10.0 mi Calm Calm - N/A   Clear
7:56 PM 60.1 °F 57.9 °F 93% 30.07 in 10.0 mi Calm Calm - N/A   Clear
8:56 PM 57.9 °F 57.0 °F 97% 30.08 in 6.0 mi Calm Calm - N/A   Clear
9:53 PM 57.2 °F 57.2 °F 100% 30.07 in 1.8 mi Calm Calm - 0.00 in Rain Light Rain
9:54 PM 57.0 °F 57.0 °F 100% 30.08 in 1.8 mi Calm Calm - 0.00 in Rain Light Rain
9:57 PM 57.2 °F 57.2 °F 100% 30.07 in 3.0 mi Calm Calm - 0.00 in Rain Light Rain
10:19 PM 55.4 °F 55.4 °F 100% 30.06 in 1.8 mi Calm Calm - 0.00 in   Clear
10:29 PM 55.4 °F 55.4 °F 100% 30.07 in 3.0 mi Calm Calm - 0.00 in Rain Light Rain
10:56 PM 55.9 °F 55.0 °F 97% 30.08 in 2.0 mi Calm Calm - 0.00 in   Clear
11:03 PM 55.4 °F 55.4 °F 100% 30.07 in 1.8 mi Calm Calm - 0.00 in Rain Light Rain
11:06 PM 55.4 °F 55.4 °F 100% 30.07 in 3.0 mi Calm Calm - 0.00 in Rain Light Rain
11:17 PM 55.4 °F 55.4 °F 100% 30.06 in 1.8 mi Calm Calm - 0.00 in   Clear
11:29 PM 55.4 °F 53.6 °F 94% 30.06 in 4.0 mi Calm Calm - 0.00 in Rain Light Rain
11:49 PM 55.4 °F 53.6 °F 94% 30.07 in 1.8 mi Calm Calm - 0.00 in Rain Light Rain
11:56 PM 55.0 °F 55.0 °F 100% 30.07 in 2.0 mi Calm Calm - 0.00 in Rain Light Rain